Date_and_time,latitude,longitude,wind_speed,RelWindDirFrom,WindDirFrom,air_pressure,air_temperature,relative_humidity,Temp,platform_speed_wrt_ground,air_pressure_at_mean_sea_level,platform_orientation
2019-01-26 00:00,50.6304516666667,-96.980765,6.9,8.2,186,994.59,-28.1,67,0.26,0.0,1025.89,90.0
2019-01-26 00:10,50.63045,-96.980765,6.4,7.7,187,994.47,-28.2,67,0.26,0.0,1025.78,90.0
2019-01-26 00:20,50.6304533333333,-96.9807716666667,6.0,7.3,181,994.41,-28.3,68,0.26,0.0,1025.73,90.0
2019-01-26 00:30,50.6304516666667,-96.9807733333333,6.0,7.0,181,994.33,-28.5,68,0.26,0.0,1025.66,90.0
2019-01-26 00:40,50.6304483333333,-96.9807666666667,5.2,6.2,181,994.15,-28.7,69,0.26,0.0,1025.50,90.0
2019-01-26 00:50,50.63045,-96.9807633333333,5.0,6.0,179,993.87,-28.8,69,0.26,0.0,1025.22,90.0
2019-01-26 01:00,50.63045,-96.9807666666667,4.8,5.7,179,993.69,-28.9,70,0.26,0.0,1025.04,90.0
2019-01-26 01:10,50.6304516666667,-96.9807683333333,5.1,6.4,180,993.45,-29.0,70,0.26,0.0,1024.78,90.0
2019-01-26 01:20,50.6304516666667,-96.9807666666667,5.3,6.0,179,993.31,-29.1,70,0.26,0.0,1024.63,90.0
2019-01-26 01:30,50.6304816666667,-96.980785,5.4,6.1,175,993.10,-29.1,70,0.26,0.0,1024.42,90.0
2019-01-26 01:40,50.6304616666667,-96.980765,5.9,6.9,170,992.84,-29.1,70,0.26,0.0,1024.16,90.0
2019-01-26 01:50,50.6304733333333,-96.9807583333333,5.5,6.5,181,992.74,-28.9,71,0.27,0.0,1024.05,90.0
2019-01-26 02:00,50.630455,-96.9807633333333,6.0,7.0,186,992.61,-28.9,71,0.27,0.0,1023.92,0.0
2019-01-26 02:10,50.6304533333333,-96.9807666666667,7.1,9.1,186,992.25,-28.6,71,0.26,0.0,1023.54,0.0
2019-01-26 02:20,50.6304533333333,-96.9807683333333,6.9,8.4,187,991.79,-28.5,71,0.26,0.0,1023.07,0.0
2019-01-26 02:30,50.630455,-96.98077,7.5,9.6,185,991.63,-28.4,71,0.25,0.0,1022.91,0.0
2019-01-26 02:40,50.6304533333333,-96.98077,7.5,9.3,183,991.50,-28.4,71,0.25,0.0,1022.78,0.0
2019-01-26 02:50,50.6304533333333,-96.9807733333333,7.7,9.1,186,991.42,-28.4,71,0.25,0.0,1022.71,0.0
2019-01-26 03:00,50.630455,-96.980775,8.6,12.0,189,991.25,-28.2,71,0.25,0.0,1022.53,270.0
2019-01-26 03:10,50.630455,-96.9807733333333,9.1,12.7,191,991.10,-28.1,71,0.25,0.0,1022.37,270.0
2019-01-26 03:20,50.630455,-96.9807733333333,9.6,11.9,190,991.05,-28.1,71,0.25,0.0,1022.31,270.0
2019-01-26 03:30,50.630455,-96.9807716666667,8.5,11.3,195,991.13,-28.0,71,0.25,0.0,1022.39,270.0
2019-01-26 03:40,50.6304566666667,-96.9807716666667,8.5,11.5,187,990.82,-27.7,72,0.24,0.0,1022.04,270.0
2019-01-26 03:50,50.6304566666667,-96.9807716666667,9.8,12.3,188,990.73,-27.7,71,0.24,0.0,1021.94,270.0
2019-01-26 04:00,50.63047,-96.98083,10.2,12.8,189,990.44,-27.7,71,0.24,0.0,1021.64,299.3
2019-01-26 04:10,50.6304533333333,-96.980775,9.3,12.2,191,990.36,-27.6,71,0.24,0.0,1021.53,299.3
2019-01-26 04:20,50.630455,-96.9807733333333,9.4,12.1,186,990.13,-27.4,71,0.23,0.0,1021.28,299.3
2019-01-26 04:30,50.630445,-96.9807766666667,10.3,13.3,187,990.04,-27.3,71,0.23,0.0,1021.18,299.3
2019-01-26 04:40,50.630445,-96.9807733333333,9.6,13.3,189,989.98,-27.2,71,0.23,0.0,1021.11,299.3
2019-01-26 04:50,50.6304466666667,-96.9807716666667,8.8,11.7,187,989.84,-27.1,71,0.23,0.0,1020.95,299.3
2019-01-26 05:00,50.6304466666667,-96.98077,7.6,9.3,186,989.85,-27.1,71,0.23,0.0,1020.95,142.0
2019-01-26 05:10,50.6304483333333,-96.98077,8.2,11.5,185,989.63,-27.1,71,0.23,0.0,1020.72,142.0
2019-01-26 05:20,50.6304483333333,-96.98077,8.7,10.7,186,989.27,-27.1,71,0.22,0.0,1020.35,142.0
2019-01-26 05:30,50.63045,-96.98077,7.5,9.4,187,989.30,-27.1,71,0.22,0.0,1020.36,142.0
2019-01-26 05:40,50.6304583333333,-96.9807816666667,7.6,9.8,190,989.19,-27.1,71,0.22,0.0,1020.24,142.0
2019-01-26 05:50,50.6304633333333,-96.9808083333333,8.0,10.3,184,989.11,-27.0,71,0.22,0.0,1020.15,142.0
2019-01-26 06:00,50.6304583333333,-96.9807733333333,7.1,8.9,190,989.04,-26.8,71,0.22,0.0,1020.07,360.0
2019-01-26 06:10,50.6304516666667,-96.98077,5.5,7.7,193,988.99,-26.6,72,0.22,0.0,1019.99,360.0
2019-01-26 06:20,50.6304533333333,-96.9807666666667,6.0,8.6,189,988.81,-26.4,72,0.22,0.0,1019.79,360.0
2019-01-26 06:30,50.6304533333333,-96.980765,5.1,7.0,184,988.70,-26.2,72,0.22,0.0,1019.66,360.0
2019-01-26 06:40,50.6304483333333,-96.9807733333333,5.5,6.8,187,988.52,-26.1,72,0.21,0.0,1019.46,360.0
2019-01-26 06:50,50.630465,-96.9807733333333,4.8,6.8,187,988.35,-25.9,72,0.21,0.0,1019.26,360.0
2019-01-26 07:00,50.6304583333333,-96.98075,4.9,6.4,193,988.31,-25.8,72,0.21,0.0,1019.21,109.0
2019-01-26 07:10,50.6304516666667,-96.9807666666667,3.7,5.3,194,988.23,-25.7,72,0.21,0.0,1019.13,109.0
2019-01-26 07:20,50.6304766666667,-96.9807866666667,3.6,4.5,183,988.01,-25.7,72,0.21,0.0,1018.91,109.0
2019-01-26 07:30,50.630465,-96.9807733333333,3.6,5.0,185,987.87,-25.7,73,0.21,0.0,1018.76,109.0
2019-01-26 07:40,50.630455,-96.9807716666667,3.0,4.4,185,987.77,-25.7,73,0.21,0.0,1018.65,109.0
2019-01-26 07:50,50.6304466666667,-96.98075,1.0,2.5,182,987.70,-25.7,73,0.21,0.0,1018.56,109.0
2019-01-26 08:00,50.6304466666667,-96.9807833333333,0.3,1.4,177,987.65,-25.7,73,0.21,0.0,1018.50,270.0
2019-01-26 08:10,50.6304516666667,-96.9807783333333,0.1,0.9,174,987.52,-25.6,73,0.21,0.0,1018.35,270.0
2019-01-26 08:20,50.6304533333333,-96.980775,0.0,0.2,0,987.43,-25.6,74,0.21,0.0,1018.24,270.0
2019-01-26 08:30,50.63046,-96.9807766666667,0.2,1.0,122,987.33,-25.3,74,0.21,0.0,1018.12,270.0
2019-01-26 08:40,50.6304516666667,-96.9807633333333,1.3,1.9,149,987.25,-25.5,74,0.21,0.0,1018.04,270.0
2019-01-26 08:50,50.6304533333333,-96.9807666666667,1.4,2.4,178,987.13,-25.7,74,0.21,0.0,1017.92,270.0
2019-01-26 09:00,50.6304533333333,-96.9807666666667,0.8,1.3,179,987.02,-26.1,74,0.21,0.0,1017.81,167.4
2019-01-26 09:10,50.6304516666667,-96.9807666666667,1.3,2.2,180,987.01,-26.1,75,0.22,0.0,1017.80,167.4
2019-01-26 09:20,50.6304533333333,-96.9807666666667,2.1,2.5,178,986.97,-25.9,75,0.22,0.0,1017.75,167.4
2019-01-26 09:30,50.6304483333333,-96.9807616666667,1.9,2.3,181,987.13,-26.0,75,0.22,0.0,1017.92,167.4
2019-01-26 09:40,50.6304533333333,-96.980765,2.0,2.5,198,987.16,-26.1,75,0.22,0.0,1017.96,167.4
2019-01-26 09:50,50.6304466666667,-96.9807666666667,2.4,3.0,202,987.14,-26.0,75,0.24,0.0,1017.93,167.4
2019-01-26 10:00,50.6304516666667,-96.9807616666667,2.4,2.8,210,987.28,-26.1,75,0.24,0.0,1018.08,228.3
2019-01-26 10:10,50.6304533333333,-96.980765,1.8,2.7,264,987.34,-25.9,76,0.25,0.0,1018.13,228.3
2019-01-26 10:20,50.6304516666667,-96.980765,1.8,2.6,283,987.46,-26.1,75,0.25,0.0,1018.25,228.3
2019-01-26 10:30,50.6304516666667,-96.9807666666667,2.8,3.3,272,987.48,-26.6,76,0.25,0.0,1018.31,228.3
2019-01-26 10:40,50.6304516666667,-96.9807666666667,2.0,3.2,297,987.61,-26.9,76,0.25,0.0,1018.49,228.3
2019-01-26 10:50,50.6304516666667,-96.9807683333333,1.8,2.6,317,987.74,-27.1,75,0.25,0.0,1018.65,228.3
2019-01-26 11:00,50.6304716666667,-96.9807716666667,2.4,3.4,330,987.97,-27.1,75,0.25,0.0,1018.89,360.0
2019-01-26 11:10,50.6304483333333,-96.9807716666667,2.8,3.5,342,988.09,-27.1,76,0.25,0.0,1019.00,360.0
2019-01-26 11:20,50.6304566666667,-96.98077,1.8,2.6,336,988.22,-27.3,75,0.26,0.0,1019.15,360.0
2019-01-26 11:30,50.630455,-96.98077,2.1,2.6,332,988.36,-27.2,74,0.26,0.0,1019.30,360.0
2019-01-26 11:40,50.6304533333333,-96.98077,2.5,3.4,323,988.51,-27.3,74,0.26,0.0,1019.45,360.0
2019-01-26 11:50,50.6304566666667,-96.9807833333333,2.9,3.7,318,988.61,-27.5,74,0.26,0.0,1019.57,360.0
2019-01-26 12:00,50.630455,-96.9807783333333,3.1,3.5,330,988.74,-27.7,74,0.26,0.0,1019.71,270.0
2019-01-26 12:10,50.6304516666667,-96.9807733333333,3.0,4.2,338,988.92,-27.9,73,0.26,0.0,1019.91,270.0
2019-01-26 12:20,50.6304516666667,-96.9807633333333,2.6,3.6,336,989.00,-28.1,73,0.27,0.0,1020.04,270.0
2019-01-26 12:30,50.6304466666667,-96.980755,4.5,6.3,338,989.08,-28.2,73,0.27,0.0,1020.15,270.0
2019-01-26 12:40,50.6304616666667,-96.9807583333333,6.6,9.0,334,989.12,-28.2,73,0.27,0.0,1020.21,270.0
2019-01-26 12:50,50.630455,-96.98076,6.4,9.5,328,989.16,-28.2,73,0.26,0.0,1020.25,270.0
2019-01-26 13:00,50.6304583333333,-96.9807933333333,7.4,10.3,327,989.27,-28.2,73,0.26,0.0,1020.36,281.6
2019-01-26 13:10,50.6304483333333,-96.9807533333333,8.4,11.6,329,989.29,-28.2,72,0.27,0.0,1020.40,281.6
2019-01-26 13:20,50.6304533333333,-96.980765,10.1,13.9,337,989.42,-28.1,72,0.27,0.0,1020.52,281.6
2019-01-26 13:30,50.630455,-96.98077,10.3,13.8,338,989.68,-28.1,72,0.27,0.0,1020.80,281.6
2019-01-26 13:40,50.6304533333333,-96.9807683333333,10.4,14.5,338,989.91,-28.2,72,0.27,0.0,1021.05,281.6
2019-01-26 13:50,50.63046,-96.9807783333333,9.6,12.0,338,989.99,-28.3,72,0.27,0.0,1021.15,281.6
2019-01-26 14:00,50.630455,-96.98077,9.1,12.3,336,990.20,-28.4,72,0.27,0.0,1021.39,360.0
2019-01-26 14:10,50.630455,-96.980765,7.9,10.2,330,990.34,-28.6,71,0.27,0.0,1021.55,360.0
2019-01-26 14:20,50.6304516666667,-96.9807666666667,6.2,9.6,324,990.57,-28.8,71,0.27,0.0,1021.81,360.0
2019-01-26 14:30,50.63045,-96.9807683333333,6.1,9.3,324,990.71,-28.9,70,0.27,0.0,1021.97,360.0
2019-01-26 14:40,50.6304516666667,-96.9807683333333,6.5,8.6,324,990.70,-28.9,70,0.27,0.0,1021.95,360.0
2019-01-26 14:50,50.6304533333333,-96.98077,6.6,9.3,324,990.83,-28.9,69,0.27,0.0,1022.09,360.0
2019-01-26 15:00,50.6304516666667,-96.98077,6.4,10.7,325,990.97,-28.7,69,0.27,0.0,1022.22,90.0
2019-01-26 15:10,50.6304533333333,-96.98077,6.3,8.8,322,991.06,-28.5,69,0.27,0.0,1022.29,90.0
2019-01-26 15:20,50.6304516666667,-96.9807716666667,7.1,10.1,318,991.15,-28.4,68,0.27,0.0,1022.38,90.0
2019-01-26 15:30,50.6304533333333,-96.9807716666667,7.1,10.2,321,991.35,-28.4,68,0.27,0.0,1022.59,90.0
2019-01-26 15:40,50.6304433333333,-96.9807616666667,6.7,9.6,322,991.46,-28.2,67,0.27,0.0,1022.70,90.0
2019-01-26 15:50,50.6304466666667,-96.98076,6.2,8.6,321,991.60,-28.0,67,0.27,0.0,1022.83,90.0
2019-01-26 16:00,50.63045,-96.9807616666667,5.8,8.2,317,991.72,-27.8,66,0.26,0.0,1022.96,101.6
2019-01-26 16:10,50.63045,-96.9807616666667,6.0,10.5,326,991.88,-27.5,66,0.26,0.0,1023.11,101.6
2019-01-26 16:20,50.6304316666667,-96.9807516666667,6.2,9.7,336,992.03,-27.3,65,0.26,0.0,1023.26,101.6
2019-01-26 16:30,50.6304883333333,-96.9807883333333,6.4,10.3,350,992.19,-27.0,64,0.26,0.0,1023.41,101.6
2019-01-26 16:40,50.6304416666667,-96.98077,6.6,8.1,352,992.40,-27.0,63,0.26,0.0,1023.62,101.6
2019-01-26 16:50,50.63044,-96.9807666666667,6.6,9.9,328,992.54,-26.7,62,0.26,0.0,1023.75,101.6
2019-01-26 17:00,50.630445,-96.9807666666667,7.8,13.9,338,992.75,-26.4,61,0.27,0.0,1023.92,360.0
2019-01-26 17:10,50.630445,-96.980765,9.6,13.5,346,993.00,-26.3,60,0.26,0.0,1024.18,360.0
2019-01-26 17:20,50.63046,-96.980775,9.6,13.4,339,993.15,-26.3,60,0.26,0.0,1024.32,360.0
2019-01-26 17:30,50.6304566666667,-96.9807716666667,9.9,16.3,343,993.28,-26.2,59,0.26,0.0,1024.45,360.0
2019-01-26 17:40,50.630455,-96.980775,9.3,14.6,338,993.43,-26.2,59,0.26,0.0,1024.59,360.0
2019-01-26 17:50,50.6304566666667,-96.980775,10.8,14.4,346,993.47,-26.3,59,0.26,0.0,1024.62,360.0
2019-01-26 18:00,50.6304533333333,-96.9807733333333,10.9,15.8,349,993.58,-26.5,59,0.26,0.0,1024.72,270.0
2019-01-26 18:10,50.63046,-96.9807733333333,10.8,14.0,347,993.66,-26.5,58,0.26,0.0,1024.79,270.0
2019-01-26 18:20,50.6304516666667,-96.9807683333333,10.1,14.3,351,993.85,-26.5,58,0.26,0.0,1024.97,270.0
2019-01-26 18:30,50.6304533333333,-96.9807683333333,10.5,14.5,353,993.90,-26.5,58,0.26,0.0,1025.02,270.0
2019-01-26 18:40,50.6304516666667,-96.98077,9.6,12.6,352,994.03,-26.4,57,0.26,0.0,1025.13,270.0
2019-01-26 18:50,50.63045,-96.9807716666667,9.2,11.8,347,994.10,-26.3,57,0.26,0.0,1025.18,270.0
2019-01-26 19:00,50.6304516666667,-96.9807683333333,9.2,12.5,343,994.20,-26.3,56,0.26,0.0,1025.28,270.0
2019-01-26 19:10,50.6304516666667,-96.9807683333333,9.0,12.0,357,994.42,-26.2,57,0.26,0.0,1025.49,270.0
2019-01-26 19:20,50.6304516666667,-96.9807683333333,8.9,12.2,352,994.51,-26.0,56,0.26,0.0,1025.57,270.0
2019-01-26 19:30,50.6304533333333,-96.9807683333333,10.0,12.7,355,994.46,-25.9,56,0.26,0.0,1025.52,270.0
2019-01-26 19:40,50.6304533333333,-96.9807683333333,7.7,10.3,343,994.63,-25.6,54,0.26,0.0,1025.68,270.0
2019-01-26 19:50,50.6304533333333,-96.98077,6.4,9.3,339,994.69,-25.3,53,0.26,0.0,1025.73,270.0
2019-01-26 20:00,50.6304516666667,-96.98077,7.2,10.0,314,994.61,-25.3,52,0.26,0.0,1025.65,360.0
2019-01-26 20:10,50.6304516666667,-96.9807716666667,5.7,9.4,311,994.80,-25.2,50,0.26,0.0,1025.84,360.0
2019-01-26 20:20,50.6304516666667,-96.9807716666667,6.6,9.1,303,994.75,-25.2,50,0.27,0.0,1025.78,360.0
2019-01-26 20:30,50.6304533333333,-96.98077,6.6,9.7,312,994.92,-25.1,50,0.27,0.0,1025.94,360.0
2019-01-26 20:40,50.6304533333333,-96.9807716666667,6.8,10.4,294,994.99,-25.2,50,0.27,0.0,1026.02,360.0
2019-01-26 20:50,50.6304533333333,-96.98077,7.2,9.7,300,995.00,-25.2,50,0.27,0.0,1026.03,360.0
2019-01-26 21:00,50.6304533333333,-96.9807716666667,7.9,10.7,299,994.97,-25.3,50,0.27,0.0,1025.99,0.0
2019-01-26 21:10,50.6304083333333,-96.9807366666667,7.6,10.0,304,995.07,-25.2,50,0.27,0.0,1026.08,0.0
2019-01-26 21:20,50.6304466666667,-96.9807683333333,6.6,9.9,304,995.19,-25.1,49,0.28,0.0,1026.20,0.0
2019-01-26 21:30,50.63045,-96.9807666666667,8.1,11.3,295,995.30,-25.2,49,0.28,0.0,1026.29,0.0
2019-01-26 21:40,50.63046,-96.980765,7.1,10.1,299,995.38,-25.2,48,0.28,0.0,1026.36,0.0
2019-01-26 21:50,50.6304566666667,-96.9807633333333,6.8,10.4,305,995.46,-25.2,48,0.28,0.0,1026.44,0.0
2019-01-26 22:00,50.6304533333333,-96.9807733333333,7.5,10.9,309,995.64,-25.3,46,0.28,0.0,1026.62,270.0
2019-01-26 22:10,50.6304183333333,-96.9807533333333,6.9,9.7,308,995.82,-25.4,46,0.29,0.0,1026.81,270.0
2019-01-26 22:20,50.630455,-96.9807716666667,6.7,10.1,313,995.88,-25.5,45,0.29,0.0,1026.87,270.0
2019-01-26 22:30,50.630455,-96.9807666666667,6.0,9.6,315,995.95,-25.6,46,0.29,0.0,1026.96,270.0
2019-01-26 22:40,50.6304533333333,-96.9807683333333,5.5,8.3,322,995.94,-25.8,47,0.29,0.0,1026.96,270.0
2019-01-26 22:50,50.630455,-96.98077,6.4,8.9,320,995.90,-26.1,48,0.29,0.0,1026.95,270.0
2019-01-26 23:00,50.630455,-96.9807716666667,5.7,8.6,320,995.95,-26.4,48,0.30,0.0,1027.02,270.0
2019-01-26 23:10,50.630445,-96.980775,5.2,7.6,321,996.03,-26.7,49,0.30,0.0,1027.11,270.0
2019-01-26 23:20,50.6304316666667,-96.9807783333333,4.5,6.4,327,996.05,-27.0,49,0.30,0.0,1027.16,270.0
2019-01-26 23:30,50.6304416666667,-96.9807716666667,3.8,6.2,318,996.06,-27.1,49,0.30,0.0,1027.18,270.0
2019-01-26 23:40,50.6304433333333,-96.9807716666667,3.0,5.0,302,996.05,-27.3,51,0.30,0.0,1027.17,270.0
